Flag for Greece Weather past 2 weeks in Chania, Crete, Greece

Now
70 °F

Light rain. Broken clouds.


Feels Like: 70 °F
Forecast: 64 / 77 °F
Wind: 8 mph from East

Location: Souda Airport

Current Time: May 26, 2015 at 3:42:42 PM

Latest Report: May 26, 2015 at 2:50 PM


Visibility: N/A

Pressure: 29.80 "Hg

Humidity: 78%

Dew point: 63 °F

Location of ChaniaLocation

Historic Weather in Chania — Graph

°F

Chania temperature yesterday

Maximum temperature yesterday: 73 °F (at 1:50 PM)
Minimum temperature yesterday: 63 °F (at 12:20 AM)
Average temperature yesterday: 68 °F

Past Weeks' High & Low Weather Summary

 TemperatureHumidityPressure
High84 °F (May 21, 1:50 PM)94% (May 12, 10:50 PM)30.12 "Hg (May 12, 10:50 PM)
Low57 °F (May 14, 2:50 AM)35% (May 16, 12:50 PM)29.77 "Hg (May 19, 6:50 AM)
Average69 °F66%29.93 "Hg
* Reported May 11 2:20 PM — May 26 2:20 PM, Chania, Weather by CustomWeather, © 2015

Note: Actual official high and low records may vary slightly from our data, if they occured in-between our weather recording intervals... More about our weather records

Advertising

Chania weather history for previous 24 hours

 ConditionsComfort  
Time TempWeatherWind HumidityBarometerVisibility
2:20 PM
Tue, May 26
72 °FThunderstorms. Broken clouds.9 mph73%29.77 "Hg6 mi
1:50 PM77 °FPartly sunny.14 mph47%29.77 "HgN/A
1:20 PM77 °FScattered clouds.12 mph44%29.80 "HgN/A
12:50 PM77 °FScattered clouds.12 mph44%29.80 "HgN/A
12:20 PM79 °FPassing clouds.5 mph45%29.80 "HgN/A
11:50 AM79 °FPassing clouds.7 mph45%29.80 "HgN/A
11:20 AM77 °FSunny.7 mph51%29.80 "Hg10 mi
10:50 AM77 °FSunny.No wind51%29.80 "Hg10 mi
10:20 AM75 °FPassing clouds.No wind54%29.80 "HgN/A
9:50 AM73 °FPassing clouds.No wind53%29.80 "HgN/A
9:20 AM72 °FPassing clouds.5 mph50%29.80 "HgN/A
8:50 AM70 °FPassing clouds.No wind53%29.80 "HgN/A
8:20 AM66 °FScattered clouds.No wind64%29.83 "HgN/A
7:50 AM64 °FScattered clouds.No wind68%29.83 "HgN/A
7:20 AM61 °FBroken clouds.No wind63%29.80 "HgN/A
6:50 AM61 °FPassing clouds.No wind63%29.80 "HgN/A
6:20 AM61 °FPassing clouds.No wind68%29.80 "HgN/A
5:50 AM61 °FPassing clouds.No wind68%29.80 "HgN/A
5:20 AM61 °FPassing clouds.No wind68%29.83 "HgN/A
4:50 AM61 °FPassing clouds.No wind68%29.83 "HgN/A
4:20 AM61 °FPassing clouds.No wind68%29.80 "HgN/A
3:50 AM61 °FPassing clouds.No wind68%29.80 "HgN/A
3:20 AM61 °FPassing clouds.No wind77%29.83 "HgN/A
2:50 AM61 °FPassing clouds.No wind77%29.83 "HgN/A
2:20 AM61 °FPassing clouds.5 mph83%29.83 "HgN/A
1:50 AM61 °FPassing clouds.5 mph83%29.83 "HgN/A
1:20 AM64 °FPassing clouds.No wind68%29.86 "HgN/A
12:50 AM64 °FPassing clouds.No wind68%29.86 "HgN/A
12:20 AM64 °FPassing clouds.7 mph64%29.86 "HgN/A
11:20 PM
Mon, May 25
64 °FPassing clouds.12 mph64%29.86 "HgN/A
10:50 PM64 °FPassing clouds.12 mph64%29.86 "HgN/A
10:20 PM66 °FPassing clouds.9 mph56%29.86 "HgN/A
9:50 PM66 °FPassing clouds.9 mph56%29.86 "HgN/A
9:20 PM66 °FPassing clouds.14 mph64%29.86 "HgN/A
8:50 PM66 °FPassing clouds.16 mph64%29.86 "HgN/A
8:20 PM70 °FPassing clouds.16 mph53%29.86 "HgN/A
7:50 PM70 °FPassing clouds.16 mph53%29.86 "HgN/A
7:20 PM72 °FPassing clouds.16 mph57%29.86 "HgN/A
6:50 PM72 °FPassing clouds.18 mph57%29.86 "HgN/A
6:20 PM73 °FPassing clouds.18 mph47%29.86 "HgN/A
5:50 PM73 °FPassing clouds.18 mph47%29.86 "HgN/A
5:20 PM73 °FPassing clouds.18 mph50%29.86 "HgN/A
4:50 PM73 °FPassing clouds.16 mph50%29.86 "HgN/A
4:20 PM73 °FPassing clouds.16 mph50%29.86 "HgN/A
3:50 PM73 °FPassing clouds.21 mph50%29.86 "HgN/A
3:20 PM73 °FPassing clouds.18 mph50%29.86 "HgN/A
Weather by CustomWeather, © 2015

See weather overviewHow to use our weather pages